This demonstration page uses our WeatherBlox Daily Observations layout. Learn more.

Hourly Observations for March 28, 2019

Temp ( °F °C ) Dew Point ( °F °C ) Humidity (%) Winds ( mph kmh ) Pressure ( in mb ) Visibility ( mi km ) Precip ( " mm )
12:15 am 00:15 Clear with Drizzle 50 10 44 6.7 80 80 NNE 12 19 29.97 1015 7 11.26538 0 0
12:35 am 00:35 Clear with Drizzle 49 9.5 44 6.7 83 83 NNE 13 20 29.98 1015 7 11.26538 0 0
12:55 am 00:55 Clear with Drizzle 48 8.9 44 6.5 85 85 NE 9 15 29.99 1016 7 11.26538 0 0
1:15 am 01:15 Clear 47 8.5 44 6.6 88 88 ENE 8 13 30 1016 10 16.0934 0 0
1:35 am 01:35 Clear with Mist and Fog 48 8.7 44 6.7 87 87 NE 8 13 30.01 1016 5 8.0467 0 0
1:55 am 01:55 Clear 47 8.5 45 7 90 90 NNE 7 11 30.03 1017 10 16.0934 0 0
2:15 am 02:15 Clear with Drizzle 47 8.6 45 7 90 90 NNE 9 15 30.02 1016 4 6.43736 0 0
2:35 am 02:35 Clear with Drizzle 47 8.6 44 6.9 89 89 NE 9 15 30.01 1016 5 8.0467 0 0
2:55 am 02:55 Clear with Light Drizzle 47 8.3 44 6.6 89 89 NE 13 20 29.99 1016 10 16.0934 0 0
3:15 am 03:15 Partly Cloudy 47 8.5 44 6.6 88 88 ENE 16 26 29.98 1015 10 16.0934 0 0
3:35 am 03:35 Partly Cloudy 47 8.3 44 6.4 88 88 NE 14 22 29.98 1015 10 16.0934 0 0
3:55 am 03:55 Clear 46 8 43 6.2 89 89 NE 12 19 29.98 1015 10 16.0934 0 0
4:15 am 04:15 Partly Cloudy 46 7.8 43 6.2 90 90 NNE 6 9 30 1016 10 16.0934 0 0
4:35 am 04:35 Partly Cloudy 46 7.5 43 5.9 90 90 NE 13 20 30 1016 10 16.0934 0 0
4:55 am 04:55 Partly Cloudy 45 7.3 42 5.6 89 89 ENE 14 22 29.99 1015 10 16.0934 0 0
5:15 am 05:15 Partly Cloudy with Nearby Thunderstorms 45 7.2 42 5.5 89 89 NNE 13 20 29.99 1016 10 16.0934 0 0
5:35 am 05:35 Mostly Cloudy 45 7.2 41 5.1 87 87 NE 12 19 30 1016 10 16.0934 0 0
5:55 am 05:55 Cloudy with Thunderstorms 44 6.7 42 5.5 92 92 NE 8 13 30 1016 10 16.0934 0 0
6:15 am 06:15 Cloudy 44 6.6 42 5.5 93 93 E 22 35 29.95 1014 7 11.26538 0.03 0.762
6:35 am 06:35 Cloudy with Light Rain 44 6.6 42 5.6 93 93 ENE 14 22 29.96 1015 10 16.0934 0.03 0.762
6:55 am 06:55 Partly Cloudy 44 6.5 42 5.4 93 93 NE 17 28 29.98 1015 10 16.0934 0.03 0.762
7:15 am 07:15 Mostly Cloudy 43 6.2 42 5.5 95 95 E 22 35 29.94 1014 10 16.0934 0 0
7:35 am 07:35 Partly Cloudy 43 6.1 42 5.5 96 96 NE 14 22 29.99 1016 10 16.0934 0 0
7:55 am 07:55 Windy with Storms Likely 43 6 42 5.5 97 97 ENE 24 39 29.96 1015 10 16.0934 0 0
8:15 am 08:15 Cloudy with Nearby Thunderstorms 43 6 42 5.3 95 95 NE 15 24 30 1016 10 16.0934 0 0
8:35 am 08:35 Cloudy with Light Rain 42 5.8 42 5.3 97 97 E 15 24 30.01 1016 10 16.0934 0 0
8:55 am 08:55 Cloudy 42 5.8 42 5.5 98 98 ENE 17 28 29.96 1015 7 11.26538 0 0
9:15 am 09:15 Cloudy with Thunderstorms 42 5.8 42 5.5 98 98 NNE 16 26 30.01 1016 7 11.26538 0 0
9:35 am 09:35 Cloudy with Thunderstorms 42 5.7 41 5.2 97 97 NNE 17 28 30.02 1017 10 16.0934 0 0
9:55 am 09:55 Cloudy with Nearby Thunderstorms 42 5.7 41 5.1 96 96 NNE 13 20 30.04 1017 10 16.0934 0 0
10:15 am 10:15 Cloudy with Nearby Thunderstorms 42 5.8 41 4.9 94 94 NNE 16 26 30.06 1018 10 16.0934 0 0
10:35 am 10:35 Cloudy 42 5.7 40 4.7 93 93 NNE 22 35 30.04 1017 10 16.0934 0 0
10:55 am 10:55 Cloudy with Nearby Thunderstorms 42 5.8 40 4.6 92 92 NNE 20 31 30.08 1019 10 16.0934 0 0
11:15 am 11:15 Cloudy 42 5.8 40 4.5 91 91 NNE 18 30 30.1 1019 10 16.0934 0 0
11:35 am 11:35 Cloudy 43 5.9 40 4.5 91 91 NNE 21 33 30.09 1019 10 16.0934 0 0
11:55 am 11:55 Cloudy 43 6.1 40 4.6 90 90 NNE 22 35 30.11 1020 10 16.0934 0 0
12:15 pm 12:15 Cloudy 43 6 40 4.4 90 90 NNE 21 33 30.11 1020 10 16.0934 0 0
12:35 pm 12:35 Cloudy 43 6.1 40 4.5 90 90 NNE 22 35 30.1 1019 10 16.0934 0 0
12:55 pm 12:55 Cloudy 44 6.5 40 4.6 88 88 NNE 21 33 30.09 1019 10 16.0934 0 0
1:15 pm 13:15 Cloudy 44 6.5 40 4.5 87 87 NNE 22 35 30.1 1019 10 16.0934 0 0
1:35 pm 13:35 Cloudy 44 6.6 40 4.2 85 85 NNE 21 33 30.09 1019 10 16.0934 0 0
1:55 pm 13:55 Cloudy 45 7.1 40 4.4 83 83 NNE 22 35 30.1 1019 10 16.0934 0 0
2:15 pm 14:15 Cloudy 45 7.2 39 3.9 80 80 NNE 18 30 30.09 1019 10 16.0934 0 0
2:35 pm 14:35 Cloudy 45 7.2 38 3.4 77 77 NNE 20 31 30.09 1019 10 16.0934 0 0
2:55 pm 14:55 Cloudy 45 7.2 37 2.7 73 73 NNE 21 33 30.09 1019 10 16.0934 0 0
3:15 pm 15:15 Cloudy 45 7.2 37 2.6 73 73 NE 20 31 30.1 1019 10 16.0934 0 0
3:35 pm 15:35 Cloudy 45 7.2 37 2.6 73 73 NE 20 31 30.1 1019 10 16.0934 0 0
3:55 pm 15:55 Cloudy 45 7.3 36 2.3 71 71 NE 17 28 30.11 1020 10 16.0934 0 0
4:15 pm 16:15 Cloudy 46 7.5 37 2.6 71 71 NE 17 28 30.11 1019 10 16.0934 0 0
4:35 pm 16:35 Cloudy 45 7.2 37 2.5 72 72 NE 18 30 30.11 1020 10 16.0934 0 0
4:55 pm 16:55 Cloudy 45 7.2 37 2.5 72 72 NE 16 26 30.11 1020 10 16.0934 0 0
5:15 pm 17:15 Cloudy 46 7.5 37 2.5 71 71 NE 18 30 30.11 1019 10 16.0934 0 0
5:35 pm 17:35 Cloudy 45 7.3 36 2.2 70 70 NE 16 26 30.11 1020 10 16.0934 0 0
5:55 pm 17:55 Cloudy 46 7.5 36 2.2 69 69 NE 13 20 30.12 1020 10 16.0934 0 0
6:15 pm 18:15 Cloudy 46 7.6 35 1.5 66 66 NE 20 31 30.11 1020 10 16.0934 0 0
6:35 pm 18:35 Cloudy 45 7.3 35 1.6 67 67 NE 15 24 30.12 1020 10 16.0934 0 0
6:55 pm 18:55 Cloudy 46 7.5 36 2.3 70 70 NE 14 22 30.12 1020 10 16.0934 0 0
7:15 pm 19:15 Cloudy 45 7.2 36 2 70 70 NE 15 24 30.12 1020 10 16.0934 0 0
7:35 pm 19:35 Cloudy 45 7.2 36 2 70 70 NE 13 20 30.12 1020 10 16.0934 0 0
7:55 pm 19:55 Cloudy 45 7.2 36 2.2 71 71 NE 12 19 30.13 1020 10 16.0934 0 0
8:15 pm 20:15 Cloudy 45 7.1 37 2.5 73 73 NE 9 15 30.13 1020 10 16.0934 0 0
8:35 pm 20:35 Cloudy 45 7.1 37 2.6 73 73 NE 10 17 30.14 1021 10 16.0934 0 0
8:55 pm 20:55 Cloudy 45 7 37 2.7 74 74 NE 10 17 30.14 1021 10 16.0934 0 0
9:15 pm 21:15 Cloudy 45 7 37 2.6 74 74 NE 13 20 30.14 1021 10 16.0934 0 0
9:35 pm 21:35 Cloudy 45 7 37 2.5 73 73 NE 13 20 30.14 1021 10 16.0934 0 0
9:55 pm 21:55 Cloudy 45 7 36 2.1 71 71 NE 17 28 30.14 1021 10 16.0934 0 0
10:15 pm 22:15 Cloudy 44 6.9 36 2.1 72 72 ENE 14 22 30.16 1021 10 16.0934 0 0
10:35 pm 22:35 Cloudy 44 6.7 36 2.2 73 73 NE 13 20 30.16 1021 10 16.0934 0 0
10:55 pm 22:55 Cloudy 44 6.7 36 2.2 73 73 NE 14 22 30.16 1021 10 16.0934 0 0
11:15 pm 23:15 Cloudy 44 6.5 36 2.3 75 75 NE 13 20 30.16 1021 10 16.0934 0 0
11:35 pm 23:35 Cloudy 44 6.5 37 2.5 76 76 NE 9 15 30.16 1021 10 16.0934 0 0
11:55 pm 23:55 Cloudy 43 6.3 37 2.5 77 77 ENE 14 22 30.16 1021 10 16.0934 0 0

Powered by AerisWeather